DELTA 1 DEB, 9570

Orbit data source: Space-Track

DELTA 1 DEB, 9570 is space debris in SSO originally from a launch on Tue, 06 Nov 1973 UTC launched from the Air Force Western Test Range (AFWTR). Debris objects in space refer to the collection of defunct objects orbiting the Earth. Examples of debris include non-operational satellites, rocket bodies, and fragments generated from explosions, collisions, or faulty payload assembly.

Loading next visibility...
Identifier
9570, 1973-086FX
Orbit
SSO
Country
Flag of USUS
Related business
Manufacturer
Unknown
Mission
Spacecraft
Bus & Motor
Unknown
Mass
Unknown
Launch date (UTC)
1973-11-06 (52 years ago)
Launch vehicle
Unknown
Launch site
Air Force Western Test Range (AFWTR)
Object type
Payload
Rocket body
Debris
Shape & HBR
Unknown shape, 0.1 m
Radar Cross Section
Small (<0.1 m²)

Expand to show TLE details & history
Last TLE update: 14 hours ago

TLE from 14 hours ago
0 DELTA 1 DEB
1 09570U 73086FX  25292.83013260 -.00000013  00000-0  21425-3 0  9990
2 09570 101.7122 236.9397 0068066 112.0329 273.5585 12.41287646348056
Epoch: 2025-10-19T19:55Z
TLE epoch observation values (Epoch: 2025-10-19T19:55:23.456Z)
Latitude
24.28746°
Longitude
-95.79077°
Altitude
1,500.812 km
Speed
7.117 km/s
True Right ascension
15h 26m 23s
True Declination
24° 10' 15"
Sunlit
Object was in daylight at epoch
Visualization orbit readout
Latitude
Unknown
Longitude
Unknown
Altitude
Unknown
Speed
Unknown
Apparent Right ascension
Unknown
Apparent Declination
Unknown
Sunlit
N/A
Visualization observer readout
Local Sidereal Time
04:37:27
Azimuth
Unknown
Elevation
Unknown
Doppler factor
Unknown
Orbital elements
Apogee altitude
1,552.32 km
Perigee altitude
1,445.091 km
Semi-major axis
7,876.842 km
Eccentricity
0.00681
Inclination
101.7122°
RAAN
236.9397°
Arg. of periapsis
112.0329°
True anomaly
272.77964°
Mean anomaly
273.5585°
Eccentric anomaly
273.16911°
Mean motion
3.10467 °/min
Orbital period
115.95 mins
BSTAR
0.00021425
Loading maneuver chart data...
Computing Atmospheric mass density...
Loading historical data...
Loading historical data...
Loading historical data...
Loading historical data...
Loading historical data...
Loading historical data...
Loading historical data...

Documentation

Showing up to 5 results
|